Vertical_Velocity
-0 -0 -1 -1 -2 -2 -2 -1 -2 -1 -1 0 1 -0 1 -2 2 2 1 1 0 -0 0 -2 -2 -0 1 0 -0 1 -0 -2 -0 -3 -1 -0 -1 0 1 -1 -2 -2 0
-1 -1 -1 -1 -3 -2 -3 -1 -2 -2 -0 -1 -1 -0 -0 2 0 -1 3 1 -1 0 3 -1 1 -1 -1 0 1 0 1 -1 2 -0 -3 -1 0 -2 2 0 3 -3 -1
-1 -2 -1 -1 -2 -3 -3 -1 -0 -2 -3 -1 0 1 -0 0 -2 -0 2 -0 -0 -2 -2 -1 -1 -3 -3 -3 -4 -2 -3 -4 -0 -1 -1 -4 -2 -1 -1 1 3 2 0
-2 -1 -1 -2 -2 -1 -1 -2 -1 -1 -1 -2 -1 -1 -1 -0 0 -1 -1 -1 2 2 3 -0 -1 1 -1 -0 0 0 -0 -1 0 -3 1 -3 0 -2 -1 -3 -0 1 0
-1 -0 -1 -1 -1 -1 -1 -1 -2 -1 -1 -2 -1 -1 -1 -1 -2 -2 -2 -1 -0 -1 -2 0 1 2 2 0 -1 -1 -2 -1 1 2 -2 -4 -2 -1 -1 -0 -2 -1 -1
-1 -1 -2 -1 -1 -0 -1 -1 -1 -1 -1 -1 -1 0 -1 -1 -0 -1 -2 -2 -0 1 -2 -0 -0 -2 1 -0 1 -1 -1 0 -0 -0 1 1 -2 -2 1 -1 -0 1 -2
0 1 -1 -2 -1 -1 -1 0 -0 -1 0 -2 -1 -1 -2 -1 -0 -1 -1 -0 -2 -1 -1 -1 -2 -1 -1 -1 -3 1 -4 0 1 1 -2 1 1 0 0 0 -1 1 0
-1 -0 0 -0 -1 -1 0 -2 -2 -1 -1 -1 -1 -1 -2 -1 -1 -1 -1 -1 -0 -1 1 -0 -0 -0 -2 -3 4 2 -3 -2 0 1 -0 -0 -2 -0 0 1 -1 -1 -1
-0 -0 -1 -1 -1 -0 -1 -1 -1 -1 -1 -3 -2 -1 -1 -2 -1 -1 0 -1 -1 0 -2 -1 -1 -0 -1 0 -2 -5 -2 1 -0 -2 -1 1 -0 -0 1 1 1 1 3
-1 -1 -1 -1 -2 -1 -0 -0 -0 -1 -1 -1 -1 -2 -1 -2 -1 -1 -1 -2 -1 -3 -2 -0 0 -1 -2 -2 -3 -2 -1 0 0 -1 -3 -2 0 -0 -1 -3 1 2 1
-2 -0 -2 -1 -1 -2 -3 -2 -0 1 -1 -1 -2 -1 -1 -1 -2 -1 -1 -1 -1 -2 -2 -2 -1 -0 -1 -2 -2 -1 -1 -2 -3 -1 0 -2 -4 -3 -0 1 -2 -1 -1
-2 -2 -2 -2 -2 -1 -1 -0 -1 -0 -1 -1 -1 -0 -1 -0 0 -0 -1 0 -0 -0 0 -0 -1 -3 -1 -3 -2 -0 -1 -1 -1 -3 1 0 -2 -1 -2 -1 -0 -1 -1
-1 -3 -1 -0 -1 0 -1 -1 -1 -1 -1 -1 -1 -0 -0 -1 -1 -1 -1 -1 0 0 -2 -3 -0 -1 -0 -2 1 -2 -0 -0 -1 2 1 -1 -0 -2 -2 -1 -3 -1 -3
-1 -1 -2 -2 -2 -0 -1 -1 -2 -2 -1 -0 -0 -1 -1 -1 -1 -1 -2 -0 -1 -1 1 1 1 0 1 -1 -2 -2 -1 -2 1 -0 -2 -2 -1 -2 -2 -1 -1 -1 -3
-1 -1 -0 -1 -1 -1 -1 -1 -1 -1 -2 -2 -1 -1 -0 0 -0 1 0 -0 0 -0 -0 -2 -2 -2 -2 0 -3 -2 -1 -2 -3 -2 -7 1 -4 -4 -3 -2 -3 -2 -1
-0 2 0 0 1 1 1 2 2 1 -0 -1 -2 -2 -1 -1 -0 -1 -1 -1 -0 -1 0 -1 -1 -2 -2 -2 -4 -3 -2 -3 -1 -0 -3 -6 -2 -4 -3 -3 -4 -3 -2
-3 -3 -1 -2 -2 -1 -1 1 1 0 -1 -1 -0 -0 -1 -2 -2 -2 -3 -2 -2 -2 -2 -0 -0 -1 -2 -1 -2 -1 1 -0 -1 -1 -1 1 -2 3 2 -0 -1 -1 -3
-1 -2 -2 -1 0 -2 -2 -2 -1 -1 -0 -0 0 1 1 -0 -1 -0 -1 -0 -0 -0 0 0 1 -0 0 -2 -1 -1 -1 -0 2 -1 1 0 -2 1 -3 -1 -1 -2 -1
2 0 0 1 2 1 1 1 0 1 0 1 -0 0 -0 0 -1 -0 -0 -1 -0 -0 -0 -0 -2 -2 -1 -1 -1 -0 -1 0 -1 -1 -2 -2 -4 -4 -3 -5 0 0 -1
-1 -1 -3 -2 -1 2 0 -1 -1 -1 -0 -0 -0 0 1 0 0 0 -0 0 1 -0 -1 1 -0 1 -1 -2 -3 -3 -3 -3 -3 -2 -3 -2 -2 0 1 -0 -1 -1 2
-2 -2 -1 -6 -5 -4 0 -0 -1 -1 -2 -3 -3 -3 -2 -1 -0 -0 -1 0 -0 -1 0 1 1 1 2 1 -0 1 3 2 0 2 1 0 -2 1 2 2 -0 2 -2
1 1 -2 -1 0 -1 -1 0 0 -1 2 1 0 -0 1 0 -1 -0 1 1 0 -1 -1 -2 -2 -3 -3 -3 -3 -1 -1 -8 -4 4 -2 -1 -2 -1 -2 -0 -1 -2 -2
3 6 6 4 5 3 1 -2 -1 -3 -2 -3 2 3 3 2 -1 -2 -5 -6 -3 -1 -1 -1 -1 -1 -4 -4 -3 -6 -6 -3 -3 -6 -1 -2 -3 -1 -3 -0 0 -0 2
2 4 3 3 4 3 -0 4 4 5 3 1 -6 -5 -1 -1 -1 1 2 2 -0 0 1 -0 -1 0 3 2 0 2 -1 -2 -1 1 -4 -2 0 -0 -1 -1 1 0 0
5 2 2 2 2 3 4 3 2 0 1 2 5 5 1 0 3 0 -2 1 0 -1 0 -0 -1 -2 0 2 -1 -5 -1 -0 -0 -2 2 -6 0 3 -2 0 1 -1 -0
-1 0 2 3 3 1 3 -0 -2 -0 -3 -2 -4 -3 1 2 3 2 1 -2 -3 -4 -4 -1 -3 -3 -2 -3 -1 1 0 -1 0 -1 -1 2 5 -14 3 2 -0 -3 -1
Height
3161 3160 3160 3160 3160 3159 3159 3160 3160 3160 3160 3161 3161 3161 3161 3160 3159 3159 3160 3160 3160 3160 3160 3160 3160 3159 3159 3159 3159 3159 3160 3159 3159 3159 3159 3160 3161 3161 3161 3161 3162 3162 3163
3160 3160 3160 3159 3160 3159 3159 3159 3159 3160 3161 3161 3162 3162 3161 3161 3160 3160 3160 3160 3160 3160 3160 3160 3160 3160 3160 3160 3160 3160 3160 3161 3161 3160 3160 3160 3161 3162 3162 3162 3162 3162 3162
3159 3159 3159 3159 3159 3159 3159 3159 3160 3160 3161 3162 3162 3162 3162 3162 3161 3161 3161 3161 3161 3160 3160 3160 3160 3160 3161 3161 3161 3161 3161 3162 3162 3162 3162 3160 3161 3162 3162 3163 3163 3163 3163
3159 3159 3159 3158 3159 3159 3159 3159 3160 3161 3161 3162 3161 3162 3162 3162 3162 3162 3162 3161 3161 3161 3161 3160 3161 3161 3161 3162 3162 3161 3162 3162 3162 3162 3162 3162 3162 3163 3163 3163 3163 3164 3164
3158 3158 3158 3158 3158 3159 3158 3159 3159 3160 3161 3161 3162 3162 3162 3162 3162 3162 3162 3162 3162 3161 3161 3161 3161 3161 3161 3162 3162 3162 3162 3162 3162 3161 3161 3161 3162 3163 3164 3164 3164 3163 3164
3157 3157 3157 3158 3158 3158 3158 3159 3160 3160 3161 3161 3162 3162 3162 3161 3161 3161 3162 3162 3162 3161 3162 3162 3162 3162 3162 3161 3162 3162 3162 3162 3161 3161 3161 3160 3160 3161 3162 3163 3163 3164 3164
3157 3157 3157 3157 3158 3158 3158 3159 3159 3160 3161 3162 3162 3162 3162 3161 3161 3161 3161 3161 3161 3161 3162 3163 3163 3163 3162 3162 3162 3162 3162 3161 3161 3160 3159 3160 3159 3160 3161 3161 3161 3162 3163
3157 3157 3157 3157 3157 3158 3158 3159 3159 3160 3161 3161 3162 3162 3162 3161 3161 3161 3160 3160 3160 3161 3162 3162 3162 3162 3162 3162 3161 3161 3161 3160 3160 3159 3159 3160 3159 3159 3159 3160 3160 3161 3161
3156 3156 3157 3157 3157 3157 3158 3158 3159 3159 3160 3161 3161 3162 3161 3161 3161 3161 3160 3159 3158 3159 3160 3160 3160 3160 3161 3161 3160 3160 3159 3159 3158 3158 3158 3158 3159 3159 3159 3159 3159 3160 3160
3155 3156 3156 3156 3157 3157 3157 3158 3159 3160 3160 3160 3160 3160 3160 3160 3159 3159 3158 3158 3158 3158 3158 3159 3160 3160 3160 3159 3159 3159 3158 3157 3156 3156 3156 3156 3157 3157 3158 3159 3159 3159 3158
3155 3155 3155 3155 3155 3156 3156 3157 3158 3159 3160 3160 3160 3160 3159 3159 3159 3158 3157 3157 3157 3158 3158 3158 3157 3157 3157 3157 3157 3156 3156 3155 3154 3154 3154 3155 3155 3155 3155 3156 3156 3156 3157
3153 3154 3154 3155 3155 3155 3156 3157 3157 3158 3158 3158 3159 3159 3159 3158 3157 3157 3156 3156 3156 3156 3156 3156 3156 3155 3155 3154 3154 3153 3153 3153 3153 3152 3152 3152 3153 3153 3153 3153 3154 3154 3154
3153 3154 3154 3154 3154 3154 3155 3155 3156 3157 3157 3157 3157 3157 3157 3157 3156 3156 3155 3155 3154 3154 3154 3153 3153 3154 3153 3153 3152 3151 3151 3151 3152 3151 3150 3151 3151 3151 3150 3151 3151 3151 3150
3152 3152 3153 3154 3154 3154 3154 3155 3155 3156 3156 3156 3156 3156 3155 3154 3154 3154 3154 3153 3153 3152 3152 3152 3151 3151 3150 3150 3148 3149 3149 3149 3149 3149 3148 3147 3147 3147 3146 3146 3146 3146 3146
3150 3151 3152 3152 3152 3153 3153 3153 3153 3153 3153 3154 3154 3153 3153 3153 3153 3152 3152 3151 3151 3151 3150 3150 3148 3148 3147 3147 3146 3145 3145 3145 3144 3144 3142 3143 3143 3143 3142 3142 3142 3142 3141
3148 3148 3149 3149 3149 3150 3150 3150 3150 3150 3151 3151 3151 3151 3151 3151 3150 3150 3149 3149 3148 3147 3147 3146 3145 3145 3144 3144 3143 3142 3141 3140 3139 3139 3138 3137 3138 3137 3136 3136 3136 3135 3135
3144 3144 3145 3145 3145 3146 3146 3147 3147 3147 3147 3147 3148 3148 3147 3147 3147 3147 3147 3146 3145 3144 3144 3143 3143 3142 3141 3140 3139 3138 3137 3136 3135 3134 3133 3132 3131 3131 3130 3130 3129 3129 3129
3140 3141 3141 3141 3141 3142 3143 3143 3143 3143 3143 3143 3144 3144 3144 3145 3145 3144 3144 3143 3143 3142 3141 3141 3139 3138 3137 3136 3135 3134 3133 3132 3131 3129 3128 3127 3126 3125 3123 3124 3121 3121 3121
3137 3136 3136 3137 3137 3138 3138 3139 3139 3139 3139 3140 3141 3141 3141 3141 3141 3141 3140 3140 3139 3139 3138 3137 3136 3134 3133 3132 3131 3130 3129 3128 3127 3125 3124 3122 3121 3120 3118 3115 3116 3114 3114
3132 3132 3132 3133 3133 3133 3133 3134 3135 3136 3136 3137 3138 3138 3139 3139 3138 3138 3137 3137 3136 3135 3134 3132 3131 3130 3129 3128 3126 3125 3124 3123 3122 3120 3119 3117 3116 3114 3112 3110 3108 3107 3108
3128 3128 3128 3128 3130 3130 3131 3132 3132 3133 3134 3134 3135 3135 3135 3135 3134 3134 3134 3133 3132 3131 3130 3128 3127 3127 3125 3123 3121 3120 3118 3117 3116 3115 3113 3111 3109 3108 3107 3105 3103 3101 3099
3123 3123 3123 3124 3125 3126 3127 3127 3127 3128 3128 3128 3129 3129 3130 3130 3130 3130 3130 3128 3128 3127 3125 3124 3123 3121 3120 3118 3116 3114 3111 3110 3110 3110 3107 3106 3104 3103 3101 3100 3098 3097 3095
3118 3118 3118 3119 3120 3120 3121 3121 3123 3123 3124 3125 3126 3126 3126 3125 3125 3125 3124 3123 3123 3122 3121 3119 3118 3116 3114 3112 3111 3109 3106 3105 3101 3099 3102 3100 3098 3097 3096 3095 3092 3091 3089
3113 3113 3113 3114 3115 3116 3116 3118 3118 3119 3119 3119 3119 3120 3120 3120 3120 3120 3119 3118 3117 3116 3115 3114 3112 3110 3109 3106 3104 3103 3101 3100 3098 3096 3090 3094 3093 3091 3091 3089 3087 3086 3084
3108 3109 3109 3109 3110 3111 3112 3113 3114 3114 3114 3114 3114 3114 3114 3115 3114 3114 3113 3113 3112 3111 3109 3107 3106 3104 3102 3099 3096 3094 3095 3093 3092 3090 3089 3083 3085 3086 3085 3084 3083 3081 3080
3105 3105 3105 3105 3106 3107 3107 3108 3108 3109 3108 3109 3109 3109 3109 3108 3108 3108 3107 3106 3105 3104 3103 3101 3099 3097 3095 3092 3090 3088 3086 3085 3084 3083 3082 3082 3078 3076 3080 3078 3077 3077 3077